Terminal Aerodrome Forecast
Issued by NWS

Home | Current Version | Previous Version | Text Only | Print | Product List | Glossary On
Versions: 1 2 3 4 5 6 7 8 9 10 11 12 13 14 15 16 17 18
000
FTUS45 KGJT 190103 AAA
TAFRIL
TAF AMD
KRIL 190103Z 1901/1924 22008KT P6SM SCT100 OVC150
     FM190900 20010KT P6SM OVC120
     FM191600 25006KT P6SM VCSH OVC050
      TEMPO 1916/1920 -RA
     FM192000 27006KT P6SM VCSH OVC050=

USA.gov is the U.S. government's official web portal to all federal, state and local government web resources and services.